Tracking 18980 objects as of 22-Feb-2018
HD Live streaming from Space Station
objects crossing your sky now

NIMBUS 2 DEB

Track NIMBUS 2 DEB now!
10-day predictions


NORAD ID: 40641
Int'l Code: 1966-040BE
Perigee: 1,085.4 km
Apogee: 1,168.2 km
Inclination: 100.4 °
Period: 107.7 minutes
Semi major axis: 7497 km
RCS: Unknown
Launch date: May 15, 1966
Source: United States (US)
Launch site: AIR FORCE WESTERN TEST RANGE (AFWTR)

Note: This is SATELLITE DEBRIS
aabbcc
Your satellite tracking list
Your tracking list is empty




NASA's NSSDC Master Catalog

Two Line Element Set (TLE):
1 40641U 66040BE  18051.28811920 +.00000527 +00000-0 +10907-2 0  9990
2 40641 100.4069 179.0460 0055212 211.9910 147.7858 13.37224311135884
Source of the keplerian elements: AFSPC